星链-3906 (STARLINK-3906 )

导读

STARLINK-3906是美国太空探索技术公司星链星座中的一颗卫星,于2022年5月13日发射升空,属于星链网络建设的一部分。星链项目旨在构建全球卫星互联网星座,为全球偏远地区、海洋等区域提供高速互联网接入服务,该卫星承担着扩展星链星座覆盖范围、提升网络服务容量的任务。

基本信息
目录编号:
52585
目录名称:
STARLINK-3906
国际标识:
2022-051BB
轨道中心:
EARTH
卫星名称:
星链-3906
卫星全名:
星链-3906 (STARLINK-3906 )
卫星状态:
在轨 (已飞行1583 天)
发射日期:
2022-05-13 UTC
国别 :
美国 (US)
星等 :
--
该卫星已列入 空间交会检测服务 Space Conjunction Data Service (SCDS) ,当前飞行风险评估等级: 无高风险
轨道信息
数据来源 国际轨道数据
星历时间: 2026-09-11T22:17:19+0800
17小时前
查看轨道信息
半长轴: 6917.904km
偏心率: 0.0001133
轨道倾角: 53.162°
近地点辐角 91.125°
升交点赤经 3.909°
平近点角 268.987°
近地点: 538.983km
远地点: 540.551km
周期: 95.438分钟
每日圈数: 15.088326
详细信息
固有亮度:
5
最大亮度:
2.5
卫星平台:
Starlink v1.5
覆盖范围:
全球
运营商:
太空探索技术公司
运营商所在国:
美国
制造商(研发单位):
太空探索技术公司
制造商所在国:
美国
使用方式:
暂无
卫星简介
星链(Starlink)计划是由太空探索技术公司(SpaceX)提出的一个巨型低轨卫星互联网星座项目,计划在2019年至2024年间在太空搭建由约1.2万颗卫星组成的“星链”网络,其中1584颗将部署在地球上空550千米处的近地轨道,并从2020年开始工作。该卫星仍在工作。
2D轨道图
3D轨道图
轨道高度分析图
轨道倾角分析图
轨道综合分析图
查看轨道综合分析图
与全量物体交会距离演化趋势
与全量物体交会风险概率演化趋势